Tracking 20040 objects as of 18-Nov-2019
Live streaming from Space Station
objects crossing your sky now

RAX-2

Track RAX-2 now!
10-day predictions
RAX-2 is classified as:


NORAD ID: 37853
Int'l Code: 2011-061D
Perigee: 445.1 km
Apogee: 680.0 km
Inclination: 101.7 °
Period: 95.8 minutes
Semi major axis: 6933 km
RCS: 0.0758 m2 (small)
Launch date: October 28, 2011
Source: United States (US)
Launch site: AIR FORCE WESTERN TEST RANGE (AFWTR)

Uplink (MHz):
Downlink (MHz): 437.345
Beacon (MHz):
Mode: 9600bps GMSK
Call sign:
Status: Inactive

aabbcc
Your satellite tracking list
Your tracking list is empty




NASA's NSSDC Master Catalog

Two Line Element Set (TLE):
1 37853U 11061D   19321.89364530 +.00001692 +00000-0 +98412-4 0  9995
2 37853 101.7170 286.5089 0169388 000.4312 359.7015 15.03721058438881
Source of the keplerian elements: AFSPC